TimeCST,TemperatureF,Dew PointF,Humidity,Sea Level PressureIn,VisibilityMPH,Wind Direction,Wind SpeedMPH,Gust SpeedMPH,PrecipitationIn,Events,Conditions,WindDirDegrees,DateUTC
12:15 AM,32.0,29.3,90,29.78,10.0,South,5.8,-,N/A,,Clear,190,2013-02-14 06:15:00
12:35 AM,32.0,28.8,88,29.79,10.0,SW,6.9,-,N/A,,Clear,220,2013-02-14 06:35:00
12:55 AM,32.9,30.0,89,29.78,10.0,SSW,6.9,-,N/A,,Clear,210,2013-02-14 06:55:00
1:15 AM,32.9,30.0,89,29.79,10.0,SSW,5.8,-,N/A,,Clear,200,2013-02-14 07:15:00
1:35 AM,32.9,30.0,89,29.78,10.0,South,5.8,-,N/A,,Clear,190,2013-02-14 07:35:00
1:55 AM,32.9,30.2,90,29.78,10.0,South,6.9,-,N/A,,Clear,190,2013-02-14 07:55:00
2:15 AM,33.3,30.4,89,29.78,10.0,SSW,9.2,-,N/A,,Clear,210,2013-02-14 08:15:00
2:35 AM,33.3,30.2,89,29.78,10.0,SSW,9.2,-,N/A,,Clear,210,2013-02-14 08:35:00
2:55 AM,33.1,30.2,89,29.77,10.0,SSW,5.8,-,N/A,,Clear,200,2013-02-14 08:55:00
3:15 AM,33.1,30.6,90,29.76,10.0,SSW,6.9,-,N/A,,Clear,200,2013-02-14 09:15:00
3:35 AM,34.0,30.9,89,29.76,10.0,SSW,6.9,-,N/A,,Mostly Cloudy,210,2013-02-14 09:35:00
3:55 AM,34.7,31.1,87,29.76,10.0,SSW,8.1,-,N/A,,Mostly Cloudy,210,2013-02-14 09:55:00
4:15 AM,34.7,31.1,87,29.75,10.0,SSW,8.1,-,N/A,,Mostly Cloudy,200,2013-02-14 10:15:00
4:35 AM,34.9,31.6,88,29.75,10.0,SSW,8.1,-,N/A,,Scattered Clouds,200,2013-02-14 10:35:00
4:55 AM,34.9,31.8,89,29.75,10.0,SSW,11.5,-,N/A,,Overcast,200,2013-02-14 10:55:00
5:15 AM,35.6,32.0,87,29.74,10.0,South,11.5,-,N/A,,Overcast,190,2013-02-14 11:15:00
5:35 AM,35.6,32.0,87,29.74,10.0,SSW,10.4,-,N/A,,Overcast,200,2013-02-14 11:35:00
5:55 AM,35.1,32.0,89,29.74,10.0,South,10.4,-,N/A,,Overcast,190,2013-02-14 11:55:00
6:15 AM,35.1,32.0,89,29.75,10.0,SSW,12.7,-,N/A,,Overcast,200,2013-02-14 12:15:00
6:35 AM,35.1,32.2,89,29.75,10.0,SSW,13.8,-,N/A,,Overcast,210,2013-02-14 12:35:00
6:55 AM,34.9,32.2,90,29.75,10.0,SSW,15.0,-,N/A,,Mostly Cloudy,200,2013-02-14 12:55:00
7:15 AM,34.9,32.0,89,29.75,10.0,SSW,13.8,-,N/A,,Mostly Cloudy,210,2013-02-14 13:15:00
7:35 AM,35.2,32.2,89,29.76,10.0,SSW,13.8,-,N/A,,Mostly Cloudy,210,2013-02-14 13:35:00
7:55 AM,35.6,32.2,87,29.76,10.0,SSW,13.8,21.9,N/A,,Mostly Cloudy,210,2013-02-14 13:55:00
8:15 AM,35.6,32.4,88,29.76,10.0,SSW,13.8,-,N/A,,Mostly Cloudy,210,2013-02-14 14:15:00
8:35 AM,36.5,32.9,87,29.76,10.0,SW,15.0,-,N/A,,Clear,220,2013-02-14 14:35:00
8:55 AM,37.2,32.9,84,29.76,10.0,SW,12.7,-,N/A,,Clear,220,2013-02-14 14:55:00
9:15 AM,38.5,32.9,80,29.76,10.0,SW,17.3,-,N/A,,Clear,220,2013-02-14 15:15:00
9:35 AM,39.2,33.8,81,29.77,10.0,SW,15.0,-,N/A,,Scattered Clouds,230,2013-02-14 15:35:00
9:55 AM,41.0,34.3,77,29.78,10.0,WSW,12.7,20.7,N/A,,Scattered Clouds,240,2013-02-14 15:55:00
10:15 AM,41.9,34.0,73,29.78,10.0,WSW,13.8,-,N/A,,Mostly Cloudy,240,2013-02-14 16:15:00
10:35 AM,43.5,35.2,73,29.78,10.0,WSW,13.8,24.2,N/A,,Mostly Cloudy,240,2013-02-14 16:35:00
10:55 AM,43.3,34.9,72,29.78,10.0,WSW,11.5,-,N/A,,Mostly Cloudy,240,2013-02-14 16:55:00
11:15 AM,44.8,33.8,65,29.78,10.0,West,18.4,27.6,N/A,,Mostly Cloudy,280,2013-02-14 17:15:00
11:35 AM,45.9,36.0,68,29.79,10.0,WNW,16.1,25.3,N/A,,Scattered Clouds,290,2013-02-14 17:35:00
11:55 AM,44.6,35.1,69,29.79,10.0,West,20.7,26.5,N/A,,Mostly Cloudy,270,2013-02-14 17:55:00
12:15 PM,42.3,33.1,70,29.80,10.0,West,17.3,25.3,N/A,,Mostly Cloudy,280,2013-02-14 18:15:00
12:35 PM,41.7,32.4,69,29.80,10.0,West,20.7,28.8,N/A,,Mostly Cloudy,270,2013-02-14 18:35:00
12:55 PM,41.4,32.2,70,29.81,10.0,West,18.4,33.4,N/A,,Overcast,280,2013-02-14 18:55:00
1:15 PM,41.9,32.4,69,29.82,10.0,West,24.2,32.2,N/A,,Overcast,270,2013-02-14 19:15:00
1:35 PM,41.0,32.0,70,29.82,10.0,West,16.1,28.8,N/A,,Overcast,270,2013-02-14 19:35:00
1:55 PM,41.4,32.2,70,29.83,10.0,West,17.3,23.0,N/A,,Overcast,270,2013-02-14 19:55:00
2:15 PM,41.9,32.5,69,29.84,10.0,West,16.1,27.6,N/A,,Overcast,270,2013-02-14 20:15:00
2:35 PM,42.1,32.4,68,29.85,10.0,West,20.7,24.2,N/A,,Overcast,260,2013-02-14 20:35:00
2:55 PM,42.1,32.0,67,29.85,10.0,West,15.0,25.3,N/A,,Overcast,280,2013-02-14 20:55:00
3:15 PM,41.5,32.4,70,29.86,10.0,West,16.1,26.5,N/A,,Overcast,280,2013-02-14 21:15:00
3:35 PM,41.2,31.6,69,29.87,10.0,West,21.9,28.8,N/A,,Overcast,270,2013-02-14 21:35:00
3:55 PM,41.0,31.5,69,29.88,10.0,West,13.8,25.3,N/A,,Overcast,280,2013-02-14 21:55:00
4:15 PM,41.2,30.9,67,29.88,10.0,West,20.7,-,N/A,,Overcast,270,2013-02-14 22:15:00
4:35 PM,40.3,32.0,72,29.90,10.0,West,16.1,24.2,N/A,,Overcast,270,2013-02-14 22:35:00
4:55 PM,39.7,31.8,73,29.90,10.0,West,15.0,21.9,N/A,,Overcast,260,2013-02-14 22:55:00
5:15 PM,39.4,31.6,74,29.92,10.0,West,13.8,-,N/A,,Overcast,260,2013-02-14 23:15:00
5:35 PM,39.2,31.1,73,29.93,10.0,West,17.3,21.9,N/A,,Overcast,260,2013-02-14 23:35:00
5:55 PM,38.8,31.1,74,29.94,10.0,West,16.1,-,N/A,,Overcast,270,2013-02-14 23:55:00
6:15 PM,38.5,31.1,75,29.95,10.0,West,11.5,18.4,N/A,,Overcast,270,2013-02-15 00:15:00
6:35 PM,38.5,31.1,75,29.96,10.0,West,11.5,-,N/A,,Overcast,270,2013-02-15 00:35:00
6:55 PM,38.3,31.1,75,29.97,10.0,West,10.4,18.4,N/A,,Overcast,270,2013-02-15 00:55:00
7:15 PM,37.9,30.9,76,29.98,10.0,West,8.1,-,N/A,,Overcast,270,2013-02-15 01:15:00
7:35 PM,37.4,30.6,76,29.98,10.0,West,9.2,-,N/A,,Overcast,270,2013-02-15 01:35:00
7:55 PM,36.3,29.7,77,29.98,10.0,West,9.2,-,N/A,,Mostly Cloudy,270,2013-02-15 01:55:00
8:15 PM,34.2,28.9,81,29.98,10.0,West,6.9,-,N/A,,Clear,260,2013-02-15 02:15:00
8:35 PM,33.1,28.4,83,29.98,10.0,WSW,5.8,-,N/A,,Clear,250,2013-02-15 02:35:00
8:55 PM,32.5,28.4,85,29.98,10.0,WSW,4.6,-,N/A,,Clear,250,2013-02-15 02:55:00
9:15 PM,32.7,28.8,85,29.97,10.0,WSW,4.6,-,N/A,,Scattered Clouds,250,2013-02-15 03:15:00
9:35 PM,32.0,30.2,93,29.97,10.0,SW,3.5,-,N/A,,Mostly Cloudy,230,2013-02-15 03:35:00
9:55 PM,33.1,29.8,88,29.98,10.0,SW,4.6,-,N/A,,Overcast,230,2013-02-15 03:55:00
10:15 PM,33.8,29.5,84,29.98,10.0,WSW,4.6,-,N/A,,Overcast,250,2013-02-15 04:15:00
10:35 PM,33.8,29.3,84,29.97,10.0,West,4.6,-,N/A,,Overcast,270,2013-02-15 04:35:00
10:55 PM,33.8,29.3,84,29.97,10.0,WSW,4.6,-,N/A,,Overcast,240,2013-02-15 04:55:00
11:15 PM,33.1,29.1,85,29.97,10.0,WSW,4.6,-,N/A,,Overcast,250,2013-02-15 05:15:00
11:35 PM,33.1,29.3,86,29.98,10.0,WSW,4.6,-,N/A,,Overcast,240,2013-02-15 05:35:00
11:55 PM,32.9,28.9,85,29.97,10.0,WSW,4.6,-,N/A,,Mostly Cloudy,240,2013-02-15 05:55:00